Temp
23 22 21 21 22 23 24 24 24 25 26 26 25 24 24 24 24 27 29 29 30 28 27 28 28 28 28 29 30 30 30 31 29 26 24 25 24 24 24 24 24 24 24 23 24 25 25 24 22 22 21 21 21 20 20 19 19 18 18 17 17 16 15 15 15 16 16 16 17 17 18 18 18 18 17 17 17 18 18 18 18 18 19 19 19 19
23 21 21 22 23 24 24 25 25 25 25 25 25 24 24 24 24 28 29 29 30 28 27 28 28 28 29 29 30 30 29 29 29 26 24 24 24 24 24 24 24 24 24 24 23 24 24 23 22 22 21 20 20 20 19 19 18 18 18 18 17 16 16 16 16 17 18 18 19 20 19 19 19 18 17 17 18 18 18 18 18 18 19 19 19 19
21 21 22 23 24 24 24 25 25 25 25 25 24 23 23 24 25 27 29 29 30 28 26 28 27 27 29 29 29 30 30 30 30 28 25 24 24 24 24 24 24 24 24 24 23 23 23 22 21 21 21 21 20 19 19 18 18 18 19 18 17 17 17 16 16 18 19 19 20 20 19 19 19 18 17 18 18 18 18 18 18 19 19 19 19 19
20 21 23 24 24 24 24 24 24 24 24 24 24 23 22 24 24 24 27 29 29 28 27 28 27 27 28 28 28 29 29 30 30 29 26 24 25 24 24 24 24 23 24 23 22 22 22 21 21 21 21 21 19 18 18 18 18 19 20 18 17 18 17 16 17 18 19 19 19 20 19 19 18 18 17 17 17 17 17 18 17 18 19 19 19 19
22 23 24 25 25 25 24 24 25 24 23 24 25 24 23 24 24 24 26 28 28 28 28 27 24 24 27 27 28 28 29 29 30 30 28 26 25 25 25 24 24 24 24 23 22 22 22 21 21 21 20 20 19 18 18 18 18 20 20 19 17 18 17 17 19 19 18 18 18 19 19 17 17 17 17 17 17 17 17 18 17 18 19 19 19 19
23 25 26 25 25 25 24 25 25 24 23 23 25 25 25 25 25 25 26 26 24 24 26 26 22 22 25 26 27 28 28 29 29 30 30 28 26 25 25 24 24 24 24 23 22 22 22 21 20 20 20 20 19 17 17 19 20 20 20 19 17 18 18 18 19 19 19 18 18 18 18 17 16 16 16 17 17 16 17 18 18 18 18 18 18 18
24 26 26 25 25 25 25 24 25 26 23 22 24 26 26 26 25 25 25 24 22 22 26 27 22 21 23 25 26 27 27 28 29 29 30 30 28 27 26 24 23 23 23 23 23 23 23 21 19 19 18 18 16 15 16 20 20 19 19 18 17 18 18 18 19 19 19 18 18 18 18 17 17 17 16 17 17 17 17 18 19 18 18 18 18 19
25 26 26 26 25 25 24 24 26 26 23 22 25 27 26 26 25 25 25 23 23 23 25 26 24 21 21 24 27 28 27 27 27 27 28 28 27 26 25 23 23 23 23 23 23 22 21 19 18 17 16 16 16 16 18 21 20 18 18 18 17 17 18 18 18 18 18 18 18 18 17 17 18 18 17 17 18 17 18 18 18 18 18 18 18 19
26 25 25 26 25 24 25 25 26 27 24 24 27 27 26 26 26 26 25 23 24 23 22 23 25 22 21 24 28 28 26 26 25 24 25 25 25 25 24 24 23 23 23 23 22 21 19 17 17 17 16 15 16 17 19 21 20 18 19 18 17 17 18 18 17 17 18 18 18 17 17 17 17 18 18 18 18 17 18 18 18 18 18 18 18 18
26 26 26 26 25 25 26 27 27 26 25 26 27 27 26 27 26 26 25 23 23 22 20 22 23 22 21 23 25 26 25 24 24 24 23 24 24 24 24 24 23 23 23 22 21 19 17 16 17 17 16 15 17 17 19 20 19 18 19 18 18 17 18 18 17 17 17 18 18 17 17 17 17 18 18 17 17 17 18 18 18 18 18 18 19 18
26 27 28 27 26 26 27 27 27 27 27 27 27 26 25 26 26 25 24 23 22 21 21 22 23 22 21 22 23 23 23 24 24 23 23 23 23 22 22 22 22 22 21 19 18 17 16 16 15 16 16 15 16 18 20 21 19 18 19 19 19 18 18 17 17 17 17 17 18 17 17 18 17 18 18 17 17 17 18 18 18 18 18 19 19 18
25 26 27 27 27 27 27 26 27 27 27 27 26 25 23 23 23 23 22 22 21 20 21 22 23 22 21 21 22 23 23 23 23 23 22 22 22 20 20 19 19 20 19 17 16 16 16 15 15 15 15 15 15 16 19 20 19 18 18 19 19 18 18 17 16 16 16 17 17 17 18 18 18 18 17 17 17 17 18 18 18 18 18 19 19 19
24 25 26 27 28 27 26 25 25 26 26 26 25 23 21 21 21 21 21 21 20 20 22 23 23 22 20 21 22 23 23 23 22 22 22 22 21 19 18 18 18 18 17 16 15 15 15 15 15 15 14 14 14 15 16 17 16 16 17 17 17 17 17 16 16 16 16 16 16 17 17 18 18 18 17 17 17 18 18 18 18 18 19 19 19 19
22 24 26 26 26 27 26 24 23 24 25 25 24 22 21 20 20 20 20 20 20 20 22 23 23 21 20 21 22 23 23 23 23 22 22 21 20 18 18 17 17 16 16 16 15 15 15 15 15 15 15 14 14 14 14 15 15 15 16 16 16 16 16 16 16 16 16 16 16 16 17 18 18 18 17 17 17 18 18 18 19 19 19 19 19 19
21 22 24 25 25 26 26 25 24 24 24 25 25 24 21 21 21 20 20 20 20 21 21 23 22 20 20 21 22 22 23 23 23 22 21 19 18 17 17 16 16 15 16 16 15 15 15 15 14 15 15 14 14 14 15 16 16 16 16 16 16 16 16 16 16 16 16 16 16 16 16 17 18 17 17 17 17 18 18 19 19 19 19 19 19 19
21 21 24 26 26 26 26 25 26 25 23 24 26 24 22 22 22 21 21 21 21 21 21 21 21 20 21 21 22 22 23 23 22 20 18 17 16 16 16 15 15 15 16 16 15 15 15 15 14 14 14 14 15 15 15 16 17 17 17 17 17 16 16 16 16 16 16 16 16 16 16 16 17 17 17 17 17 18 19 19 19 19 19 19 19 19
21 21 26 26 26 26 26 25 26 24 23 24 24 22 23 25 24 21 21 21 21 20 21 21 20 19 21 21 21 22 22 21 19 18 17 16 16 16 15 15 15 15 16 16 15 15 15 15 15 15 15 15 16 16 15 15 16 16 16 17 18 18 17 17 17 17 16 16 16 16 16 16 16 17 17 17 18 18 19 19 19 19 19 19 19 19
22 21 25 26 25 26 27 26 26 26 25 23 22 23 25 26 25 22 21 21 21 20 21 21 20 19 20 19 19 21 21 19 18 17 16 16 16 16 15 15 15 15 15 15 15 15 14 14 15 15 15 15 15 16 16 15 15 15 16 16 17 18 18 17 17 17 16 16 16 16 16 16 16 17 17 18 18 19 19 19 19 19 19 19 19 19
23 21 23 26 25 26 27 26 24 25 26 25 24 26 25 22 22 22 21 20 20 20 20 20 19 18 18 18 18 19 18 17 17 16 15 15 15 15 15 15 15 15 15 15 15 15 14 14 14 14 15 15 15 15 15 15 15 15 16 16 17 17 17 17 17 16 16 16 16 16 16 16 16 16 17 18 18 19 19 19 19 20 19 19 19 19
24 21 21 25 26 26 26 25 22 23 25 26 25 26 25 23 22 22 21 21 21 20 20 20 19 18 17 17 17 17 16 16 16 16 15 15 16 15 15 15 15 15 15 15 15 15 15 14 14 14 14 15 14 15 15 15 15 15 15 16 16 16 16 16 16 16 16 16 16 16 16 16 16 15 16 18 18 18 19 19 19 19 19 19 19 19
24 22 21 23 25 24 23 24 23 23 23 24 23 23 23 24 23 23 22 22 21 20 20 20 19 17 16 17 17 16 15 15 15 15 15 15 15 15 15 15 15 14 14 14 14 15 14 14 14 14 14 15 14 15 15 15 14 15 15 15 15 15 15 15 15 16 17 16 16 16 16 15 15 16 17 18 18 18 19 19 19 19 19 19 19 18
23 22 21 22 22 22 22 25 26 25 25 24 23 23 23 23 22 22 21 21 22 21 20 20 19 17 16 16 16 15 15 15 15 15 15 15 15 15 15 15 15 14 14 14 14 14 14 14 14 14 14 15 15 14 14 14 14 14 14 15 15 15 15 15 15 16 16 16 15 16 16 16 16 16 17 18 18 18 19 19 19 19 19 19 19 18
22 22 21 21 22 22 24 26 26 27 27 26 24 24 24 23 22 21 20 21 21 21 20 20 19 17 16 16 15 15 15 15 15 15 14 14 15 15 15 15 14 14 13 13 13 13 13 13 13 14 14 14 14 15 15 14 14 14 14 14 15 15 14 15 15 15 15 15 14 15 15 16 17 17 18 18 18 19 19 19 19 19 19 19 19 18
21 22 21 21 22 23 24 25 26 26 26 25 24 24 24 24 23 22 22 21 21 20 20 20 18 17 16 16 16 16 15 14 14 14 14 14 14 14 14 14 13 13 12 12 12 12 13 13 13 13 13 13 14 14 15 14 14 14 14 14 14 15 14 14 14 15 15 14 14 14 14 16 17 17 18 18 18 19 19 18 18 19 19 19 19 19
21 20 20 20 20 21 22 23 23 22 22 22 21 21 21 22 23 23 22 22 21 20 20 20 18 16 16 16 16 15 15 14 13 14 13 13 13 13 13 13 13 12 11 11 11 11 12 12 12 12 12 13 13 13 13 14 14 14 14 14 14 14 14 14 14 15 14 14 14 14 15 16 17 17 16 17 18 19 18 18 18 18 18 19 19 19
20 20 20 20 19 19 19 19 19 18 19 20 19 19 19 20 22 22 21 21 20 19 19 18 17 15 15 15 15 14 14 13 13 13 13 13 13 12 12 12 12 11 11 11 10 10 11 11 11 11 11 11 12 12 13 13 13 14 14 14 14 14 14 15 15 15 14 14 15 15 15 16 17 17 16 17 18 18 18 18 18 18 18 18 19 19
20 20 20 19 19 19 18 18 18 18 18 18 17 17 18 18 20 20 20 20 18 17 17 17 16 16 15 14 14 13 12 12 12 12 12 12 12 11 11 11 11 11 10 10 10 10 10 10 10 10 10 11 11 11 12 12 12 13 13 14 14 14 14 14 14 14 14 15 15 15 15 16 16 17 16 17 18 18 18 18 18 18 18 18 19 19
19 19 19 19 19 19 19 18 19 19 18 16 16 16 16 17 18 19 19 19 18 18 17 16 16 16 15 14 13 12 12 11 11 11 11 11 11 10 10 10 10 10 9 9 9 9 9 9 10 10 10 10 10 10 11 11 12 12 13 13 14 14 13 14 15 14 14 14 14 15 15 15 16 16 16 17 18 18 18 18 18 18 18 18 19 19
17 17 18 19 19 19 20 19 19 18 17 15 15 15 15 16 17 17 17 17 18 19 18 17 16 15 13 12 11 11 11 10 10 10 10 10 10 9 9 9 8 8 8 8 8 8 9 9 9 9 9 9 9 10 10 11 11 11 12 13 13 14 14 14 15 14 14 14 14 14 15 15 16 16 16 17 18 18 18 18 18 18 18 18 19 19
16 16 17 18 19 18 19 19 19 18 16 14 14 14 15 16 16 16 16 16 17 18 17 15 14 13 12 11 10 10 10 10 9 9 9 9 9 8 8 8 7 7 7 7 7 8 8 9 9 9 9 9 9 9 9 10 10 10 11 12 13 13 14 14 14 14 14 14 14 14 15 15 15 16 16 17 18 18 18 18 18 18 18 18 18 19
16 16 15 16 18 18 18 18 17 16 14 13 13 13 14 15 15 14 15 15 15 14 14 13 12 11 11 10 10 9 9 9 9 8 8 8 8 7 7 7 6 6 7 7 7 7 8 8 9 8 8 8 8 9 9 9 10 10 10 11 12 13 13 13 13 13 13 14 13 14 15 15 15 16 16 16 17 18 18 18 18 18 18 18 18 18
16 15 14 15 16 17 17 16 16 15 14 13 12 12 13 14 14 13 13 13 14 13 13 13 12 11 10 9 9 8 8 8 7 7 7 7 7 7 6 6 6 6 6 6 6 6 6 8 8 8 8 8 8 8 9 9 9 9 10 10 11 12 13 13 13 13 13 13 14 14 15 15 15 15 16 16 17 18 18 18 18 18 17 17 18 18
16 16 15 15 16 16 15 15 15 16 15 14 12 11 12 13 13 13 12 12 13 13 13 13 12 11 9 9 8 7 7 7 6 7 7 7 6 6 6 6 5 5 5 5 6 6 6 7 8 8 8 8 8 8 8 9 9 9 9 10 11 12 13 13 13 13 13 13 14 14 14 14 14 14 15 15 16 17 18 17 17 17 17 17 17 17
17 17 17 17 16 16 15 15 16 16 15 13 11 11 11 12 12 11 11 11 12 11 11 10 10 9 8 8 7 6 6 6 6 6 6 6 6 6 6 5 5 5 5 5 5 6 6 7 7 8 7 7 8 8 8 9 9 9 9 10 11 11 11 12 12 12 12 12 13 14 14 14 14 14 14 15 15 16 17 16 16 16 16 16 16 16
17 17 17 17 17 16 15 16 16 14 12 11 11 11 12 12 12 11 11 11 11 10 9 8 8 7 7 7 7 6 6 6 6 6 6 6 6 6 5 5 5 5 5 5 5 5 6 6 7 7 7 7 7 8 8 8 9 9 9 10 10 10 10 11 11 11 12 12 12 13 14 14 14 14 14 14 14 15 15 15 15 15 16 16 16 16
17 17 17 17 17 16 15 16 15 12 11 11 11 11 11 12 12 12 11 10 10 10 9 8 7 7 7 7 7 6 6 6 6 6 6 6 6 5 5 5 5 4 5 5 5 5 5 6 6 6 7 7 7 7 8 8 8 8 9 9 9 9 10 10 10 10 11 12 12 12 12 13 13 13 14 13 13 13 14 14 15 15 15 15 15 15
17 17 17 17 16 15 13 13 12 11 11 11 10 10 11 11 11 11 11 10 10 10 9 8 7 7 7 7 7 6 7 6 6 5 6 6 5 5 5 5 4 4 4 5 5 5 5 6 6 6 6 7 7 7 7 7 8 8 8 9 9 9 9 9 9 10 10 11 11 11 11 12 12 13 13 13 13 13 13 14 14 14 15 15 15 15
16 15 15 15 15 14 12 11 11 12 11 10 9 9 10 10 10 11 11 9 9 10 9 8 8 7 7 7 7 7 7 7 6 5 5 5 5 5 5 5 5 4 4 5 5 5 5 5 6 6 6 6 7 7 7 7 7 7 7 8 8 8 9 9 9 9 9 10 10 11 11 11 11 12 12 13 13 12 13 13 13 14 14 14 14 14
14 14 14 15 15 14 13 12 12 12 10 9 8 9 9 10 10 11 11 10 9 10 10 9 8 8 8 8 7 7 8 7 6 5 5 5 5 5 5 5 5 4 4 5 5 5 5 5 6 6 6 6 6 7 7 7 7 7 7 7 7 8 8 8 8 9 9 9 10 10 11 11 12 12 12 12 12 12 12 13 13 13 13 13 13 13
13 14 14 14 14 14 13 11 10 10 9 8 8 8 9 9 10 11 12 10 9 9 10 9 8 8 8 8 7 7 7 7 5 5 5 5 5 5 5 5 5 5 5 5 5 5 5 5 5 6 6 6 6 6 7 7 7 7 6 7 7 7 7 8 8 9 9 9 10 10 11 11 11 12 12 12 12 12 12 12 12 12 13 13 12 12
12 13 13 13 12 12 11 10 9 9 8 7 7 8 8 9 10 11 11 9 9 9 9 8 7 7 6 7 6 5 6 6 5 5 5 5 5 5 5 5 5 5 5 5 5 5 5 5 5 5 6 6 6 7 7 7 7 7 7 7 7 7 7 8 8 9 9 9 10 10 10 10 11 11 11 11 12 12 12 12 12 12 12 12 12 11
11 12 12 12 11 12 11 10 9 9 7 6 7 8 9 10 10 9 9 8 8 8 8 7 6 6 6 5 5 5 5 5 5 5 5 5 5 5 5 5 5 5 5 5 5 5 5 5 5 5 5 6 6 7 7 7 7 7 7 7 7 7 7 8 8 9 9 9 9 9 9 10 10 10 10 11 11 11 11 11 12 12 12 12 11 11
9 10 11 10 10 11 11 10 10 9 7 6 7 8 8 9 9 8 8 8 8 7 7 7 6 6 6 5 5 5 5 5 5 5 5 5 5 5 5 5 5 5 5 5 5 5 5 5 5 5 6 6 6 6 7 7 7 7 7 7 7 7 8 8 8 8 9 8 8 8 9 9 9 9 9 10 10 10 10 10 11 11 11 12 12 11
8 10 10 9 8 10 10 9 8 8 6 6 7 7 7 7 8 8 8 7 7 7 7 6 6 6 5 5 4 4 4 4 4 4 4 5 5 5 5 5 5 5 5 5 5 5 5 5 5 6 6 6 6 6 7 7 7 7 7 7 8 8 8 8 8 8 8 8 8 8 9 9 9 9 9 9 10 10 10 10 10 10 10 11 11 11
8 9 9 8 7 8 8 7 6 6 5 5 6 6 6 7 8 8 8 7 7 7 6 6 5 5 5 5 4 4 4 4 4 4 4 4 4 5 5 5 5 5 5 6 6 6 6 6 6 6 6 6 7 7 7 7 7 7 7 7 8 8 8 8 8 8 8 8 8 9 9 9 9 9 9 10 10 10 10 10 10 10 10 10 10 10
9 9 9 8 7 7 7 6 6 5 5 5 6 6 6 6 7 7 7 6 6 6 6 6 6 6 6 5 5 5 4 4 4 4 4 4 4 5 5 5 5 5 6 6 6 6 6 6 6 6 6 6 7 7 7 7 7 7 7 7 8 8 8 8 8 8 8 8 8 8 9 9 9 9 9 9 10 10 10 10 10 10 10 10 10 10
9 10 9 8 7 8 7 6 6 6 6 6 6 6 6 6 6 6 6 6 6 6 6 6 6 6 6 6 5 5 5 5 5 5 5 5 5 5 5 5 5 5 5 6 6 6 6 6 6 6 6 6 7 7 7 7 7 7 7 7 7 7 7 8 8 8 8 8 8 8 8 8 8 8 9 9 9 9 9 9 10 10 10 10 9 9
9 10 9 8 7 8 7 6 6 6 6 6 6 6 6 6 6 6 6 6 6 6 6 6 7 7 7 6 6 6 6 6 6 6 5 5 5 5 5 5 5 5 6 6 6 6 6 6 6 6 6 7 7 7 7 7 7 7 7 7 7 7 7 7 8 8 8 8 8 8 8 8 8 8 8 8 8 8 8 8 9 9 9 8 8 8
10 9 9 8 7 7 7 7 7 6 6 6 6 6 6 6 6 6 6 6 6 6 6 6 6 6 7 6 6 6 6 7 7 7 6 6 6 6 6 6 6 6 6 6 6 6 6 6 6 6 7 7 7 7 7 7 7 7 7 7 7 7 7 7 7 8 8 8 8 8 8 8 8 8 8 8 8 7 7 7 7 8 7 7 7 8
10 9 9 8 7 7 7 8 7 7 6 6 6 6 7 7 7 6 6 6 6 6 6 6 6 6 6 6 6 6 6 6 7 7 7 7 6 6 6 6 6 6 6 6 6 6 6 6 7 7 7 7 7 7 7 7 7 8 8 8 8 7 7 7 8 8 8 8 9 8 8 8 8 8 7 7 7 7 6 5 5 6 6 6 7 7
11 10 10 9 8 8 8 8 8 7 6 6 7 7 7 7 7 6 6 6 6 6 6 6 6 6 6 6 6 6 6 6 6 7 7 7 7 7 7 6 6 6 6 6 6 6 7 7 7 7 7 7 7 8 8 8 8 8 8 8 8 8 8 8 8 8 8 8 9 9 8 8 8 7 7 7 7 7 7 6 5 5 5 6 6 6
Height
753 763 768 768 767 761 756 754 753 752 750 751 752 755 755 755 751 737 730 727 725 739 746 744 747 744 741 738 733 731 729 729 734 740 743 744 747 748 749 751 751 752 752 751 752 754 756 758 761 763 765 767 768 771 773 775 778 781 785 788 791 795 798 801 804 805 806 807 809 809 809 809 811 815 817 817 816 816 817 818 818 818 818 818 819 820
754 768 769 761 757 754 751 750 749 750 751 752 755 758 755 754 751 737 731 729 724 739 747 742 745 745 739 736 732 730 733 735 735 740 745 745 746 747 748 750 749 750 750 750 752 754 756 758 760 763 765 766 768 770 774 777 781 785 787 789 791 795 799 802 803 803 803 804 804 804 804 805 808 812 814 814 814 814 815 816 817 816 816 816 817 819
763 768 760 751 749 749 749 748 749 750 751 754 755 759 760 754 750 741 732 730 727 737 747 743 746 747 740 737 733 730 731 732 730 734 741 743 745 747 747 748 748 749 749 750 752 753 754 756 759 762 763 765 768 771 776 780 783 785 785 786 788 792 797 800 801 801 800 800 799 800 801 803 805 808 810 811 811 812 813 814 815 815 814 815 816 818
770 761 749 745 745 747 750 748 749 752 752 755 755 760 762 753 754 755 742 733 731 734 741 743 747 747 742 740 737 733 730 728 726 728 733 737 740 741 741 742 745 747 748 749 751 751 753 755 756 758 761 765 769 773 777 781 784 783 781 783 788 793 797 800 801 800 799 799 799 800 801 802 804 806 807 809 810 811 811 812 813 813 813 814 815 816
759 747 739 742 743 745 750 748 748 754 756 754 751 756 758 751 752 755 746 739 737 737 737 742 755 755 745 745 742 734 731 729 726 726 731 735 735 735 736 737 739 741 742 745 749 752 753 754 754 755 759 764 769 773 777 781 783 779 778 782 787 792 796 798 798 798 798 798 799 798 800 801 802 804 805 807 809 809 809 809 811 812 811 812 813 815
748 735 733 740 742 742 747 747 745 750 755 755 750 748 750 750 749 748 746 747 753 755 742 742 768 769 748 746 746 737 735 734 729 728 729 732 734 735 736 736 737 737 738 740 745 749 751 752 753 755 760 765 770 774 778 782 782 779 779 781 785 789 792 794 794 795 795 795 796 796 796 797 798 799 800 802 804 806 805 806 808 810 810 812 813 814
738 730 730 736 740 740 744 746 740 741 753 759 750 743 744 746 748 748 747 754 764 764 746 741 766 774 758 750 746 740 740 737 733 732 728 728 731 731 732 734 735 737 739 741 744 746 747 750 753 759 763 766 769 775 779 782 782 783 783 782 784 786 788 790 791 792 793 793 794 794 793 793 793 794 796 798 801 803 803 804 806 808 810 812 813 814
730 730 731 731 736 740 744 745 738 735 751 759 745 741 745 746 747 746 746 754 757 753 749 743 752 770 769 754 741 738 743 742 739 738 734 734 735 732 732 735 737 740 742 745 748 749 753 757 762 767 769 769 769 774 777 776 779 783 784 782 783 785 786 789 790 791 791 791 792 793 793 793 793 793 795 798 800 802 803 804 805 806 809 811 814 815
725 730 732 730 736 740 739 738 732 733 747 750 739 739 743 743 745 744 746 753 750 752 764 754 748 770 774 752 739 737 743 748 748 746 743 742 742 739 737 738 740 743 745 747 751 755 760 763 766 769 771 773 774 776 776 773 774 778 780 779 780 783 785 787 789 789 790 790 791 792 793 794 794 795 797 799 800 801 802 803 805 807 808 811 813 815
723 723 723 726 735 736 732 728 726 733 741 739 735 738 739 740 741 743 749 755 753 764 776 761 751 772 777 755 746 747 750 754 752 749 748 745 745 745 742 741 742 745 749 753 756 761 764 765 766 768 771 774 775 776 776 773 772 773 775 775 776 779 782 785 787 789 789 791 791 792 793 793 795 797 798 800 800 801 802 803 805 807 809 810 813 815
721 716 715 720 726 725 724 725 726 730 734 733 735 740 743 743 741 744 749 753 766 778 776 761 752 766 778 767 757 757 756 754 752 751 752 749 749 750 748 747 748 749 754 759 763 766 769 770 770 771 772 772 771 771 770 768 767 768 769 772 773 776 781 783 786 788 790 791 792 792 793 793 795 797 799 800 801 801 802 803 805 807 809 811 813 814
721 722 720 715 715 716 721 726 727 727 728 733 738 743 752 755 751 756 758 759 780 789 772 758 752 760 780 778 765 759 754 751 752 753 755 754 755 757 756 755 754 754 758 764 769 771 772 773 774 775 776 777 775 773 770 769 768 767 767 769 771 774 779 782 786 788 790 792 793 793 793 794 795 796 798 800 802 803 803 804 806 807 809 811 813 814
727 725 721 715 713 714 724 732 732 731 730 735 740 747 763 773 774 780 779 776 786 784 764 754 754 764 779 776 765 760 755 753 752 752 754 754 757 762 764 764 763 762 764 767 772 774 774 775 776 777 779 781 781 781 780 778 776 775 774 774 774 775 778 782 786 789 792 793 794 794 795 795 796 797 799 800 802 804 804 805 806 807 809 811 812 814
739 728 720 721 720 715 723 736 743 742 737 738 744 753 768 780 789 795 790 787 786 777 760 750 755 774 782 773 764 760 756 753 752 752 754 756 759 765 768 771 772 771 772 773 774 775 775 775 775 776 778 779 779 780 781 782 782 780 780 781 781 779 780 783 787 790 792 794 795 796 796 797 797 798 799 801 803 805 805 806 806 808 809 811 812 814
751 746 729 725 724 718 721 729 736 738 739 739 736 745 761 768 780 789 785 784 782 773 762 754 762 780 785 774 764 759 755 752 752 755 758 762 766 767 769 772 774 775 775 776 776 776 776 775 775 775 776 777 776 774 775 779 782 781 779 781 782 783 784 785 788 790 792 794 795 797 797 798 798 799 800 802 804 805 806 806 807 808 809 811 812 814
748 746 724 717 717 715 721 722 722 733 744 740 731 744 757 753 759 771 770 768 771 773 769 766 774 779 774 769 762 758 757 755 758 762 765 771 772 770 771 772 773 773 772 774 777 778 777 776 776 776 775 775 773 772 773 775 779 781 779 777 778 781 785 788 789 791 791 792 794 795 797 798 799 799 801 802 804 806 806 806 807 808 809 810 812 814
746 740 715 712 715 712 719 721 719 733 745 740 739 748 746 734 742 761 767 760 764 780 775 768 783 785 773 772 768 762 762 763 768 773 775 778 777 774 775 776 776 777 776 776 779 780 780 779 778 777 776 774 772 772 774 776 778 780 779 777 774 774 780 785 786 786 787 789 791 793 795 797 798 799 801 802 804 805 806 807 807 808 809 810 812 814
739 740 718 712 720 714 711 717 719 721 730 741 747 742 732 732 739 751 767 769 772 786 775 764 783 792 786 787 779 770 772 775 778 782 782 783 781 780 781 780 781 782 782 781 780 781 782 781 780 778 778 777 776 774 775 778 780 779 779 778 773 771 773 776 779 781 784 786 789 792 795 797 798 799 800 802 804 805 806 807 807 808 809 810 812 814
730 743 729 712 719 716 707 718 729 721 718 730 736 727 731 751 756 753 765 774 779 786 778 771 784 793 794 796 789 783 786 787 786 788 789 789 787 787 787 785 785 786 785 783 781 781 782 783 783 782 782 782 782 780 779 782 781 777 775 775 774 774 774 776 780 783 786 787 789 792 795 797 798 799 801 802 804 805 805 806 807 808 809 811 813 814
724 742 740 718 714 716 713 723 738 735 724 723 727 725 729 743 751 752 755 761 771 781 779 778 788 795 797 795 792 793 794 792 792 793 793 793 791 791 791 790 790 789 788 785 783 783 784 785 785 784 784 784 783 783 782 781 780 776 773 773 774 776 778 780 782 785 786 788 790 792 794 796 798 801 802 802 803 805 805 806 807 808 809 811 813 814
723 737 744 728 717 723 727 725 731 736 732 731 736 738 737 735 737 744 749 748 757 772 775 777 791 800 796 791 791 794 792 791 793 794 795 794 794 794 794 793 793 793 791 788 786 786 787 787 787 785 784 783 782 782 780 779 779 777 775 774 775 777 779 781 783 784 785 787 788 790 791 793 797 801 802 802 803 805 805 806 807 808 809 811 813 814
726 734 740 736 730 734 731 718 715 721 725 730 736 737 739 740 741 753 762 751 747 760 768 774 793 801 794 790 791 792 792 792 791 794 797 797 796 796 795 794 794 793 793 790 788 789 790 789 789 787 785 783 782 780 781 783 783 781 779 777 777 777 779 781 782 784 785 785 787 788 788 791 795 799 801 801 803 804 805 806 806 807 809 810 812 813
723 729 736 738 734 731 723 712 711 712 712 719 727 728 730 735 741 755 766 756 750 760 767 774 791 796 791 790 790 789 792 792 791 794 799 800 799 797 796 796 795 795 794 793 792 792 791 791 791 790 787 786 784 781 782 785 786 784 782 780 778 778 778 779 781 782 783 785 787 789 789 790 794 797 799 800 802 803 804 806 807 807 808 809 811 813
723 731 740 741 733 725 718 712 710 710 714 723 730 729 729 732 735 742 748 747 753 763 767 777 793 796 791 789 787 789 792 793 794 797 800 803 801 799 798 799 799 798 797 797 797 796 794 791 791 790 790 788 786 784 782 782 782 781 780 779 779 778 778 779 780 781 781 783 787 791 791 790 792 795 797 799 800 801 803 805 807 807 808 809 810 812
733 739 744 748 748 743 737 733 729 729 732 739 744 743 741 737 734 737 741 745 756 763 762 774 793 797 792 788 788 792 796 798 801 801 802 804 803 802 802 802 801 801 802 803 802 801 799 796 794 793 792 790 788 786 783 781 780 779 779 779 779 778 778 779 779 779 780 781 784 788 790 789 789 793 797 798 798 800 803 804 805 807 808 809 810 812
736 742 745 752 761 763 762 762 762 758 750 747 752 755 753 747 740 742 751 758 768 773 769 778 794 797 793 792 794 797 801 805 806 805 805 806 805 806 806 806 806 806 807 808 808 807 804 801 799 797 795 794 791 788 786 783 781 780 779 778 778 778 777 777 778 779 780 780 780 783 786 788 789 792 796 798 798 800 803 803 805 807 809 809 811 812
737 742 744 750 757 761 764 765 763 762 759 760 764 765 762 757 749 749 757 767 776 782 782 785 790 793 796 798 799 802 805 809 810 809 809 810 810 810 811 811 811 811 813 813 812 811 809 806 803 801 799 797 794 791 788 786 783 781 779 778 777 777 777 777 779 780 780 779 780 782 785 789 790 792 796 798 798 801 803 803 805 807 808 810 811 813
743 749 749 750 752 751 754 757 755 756 764 771 775 774 770 763 757 757 763 768 772 779 788 789 786 791 799 801 804 807 809 813 815 813 814 815 814 814 815 815 816 817 818 817 816 815 812 810 807 804 802 800 797 794 791 788 785 782 780 778 777 776 776 776 776 777 778 778 781 783 785 789 791 793 797 798 798 801 803 804 806 807 808 810 811 813
752 757 754 751 751 749 747 751 754 758 768 776 778 780 777 770 766 768 771 771 768 771 781 787 787 794 802 805 809 812 812 817 819 818 818 819 818 819 820 820 821 822 823 822 820 819 816 814 811 808 806 803 800 797 793 790 787 784 781 779 777 776 776 774 773 774 776 778 781 784 786 788 790 793 797 798 798 801 803 804 807 808 809 811 813 815
756 762 760 753 754 755 750 751 755 761 771 780 782 783 781 777 776 776 777 776 773 773 779 787 794 802 807 810 813 813 814 817 819 820 822 822 823 825 826 826 826 826 826 825 824 821 818 816 814 811 809 805 802 800 796 793 790 786 783 781 778 777 776 775 774 774 776 777 780 784 786 788 790 794 798 799 799 802 804 805 807 809 810 812 813 815
757 765 767 761 759 759 756 758 764 769 777 787 790 788 785 784 784 783 783 782 783 787 792 796 803 810 812 813 815 815 816 818 820 823 825 827 828 829 831 832 831 830 829 827 826 823 821 818 816 813 810 808 805 802 799 796 793 789 786 783 780 778 777 777 775 776 776 776 779 783 784 787 791 794 797 799 800 802 804 806 808 809 810 812 813 814
757 765 772 771 768 766 764 768 772 773 778 788 797 798 793 790 790 792 792 791 789 792 796 798 804 812 816 817 819 820 821 822 825 826 828 830 831 832 834 835 834 833 831 829 827 824 822 820 818 815 813 810 807 804 802 799 796 792 789 786 784 780 779 779 778 778 779 778 779 782 784 787 791 794 797 799 800 802 804 806 807 808 810 812 813 815
755 763 770 771 772 773 771 770 772 772 776 788 801 806 801 795 793 796 799 798 794 794 798 801 807 814 819 821 823 826 827 828 830 831 831 833 834 835 836 836 836 835 833 831 829 826 823 821 819 818 815 813 810 807 805 802 799 796 793 790 787 784 782 783 782 781 781 781 782 784 786 789 793 795 797 799 801 802 803 806 807 808 810 812 814 815
753 757 760 761 767 773 772 770 771 775 785 799 806 806 802 799 798 802 806 805 802 803 808 812 816 821 824 826 829 831 831 832 834 834 834 835 835 837 837 837 838 837 835 833 831 828 825 823 821 820 818 815 813 810 808 805 802 800 796 793 791 788 787 786 786 784 784 784 785 786 788 790 793 795 797 800 801 802 803 805 806 807 809 812 814 816
753 755 757 757 762 770 772 771 776 787 800 808 807 803 801 799 799 803 809 809 808 811 817 822 826 829 830 831 833 833 834 834 835 836 837 837 837 838 838 839 839 838 837 835 833 830 828 825 823 822 819 818 816 813 810 808 805 803 799 796 794 793 792 790 789 788 788 788 789 790 790 791 793 796 798 801 802 802 804 806 807 808 809 812 815 818
753 754 757 758 760 769 774 773 781 798 808 807 806 805 803 802 801 803 809 813 813 815 820 825 830 831 831 832 833 834 835 835 836 837 838 838 839 839 840 841 841 840 839 837 835 833 830 827 826 824 822 821 818 815 813 811 809 806 803 800 799 798 797 795 793 792 792 793 793 793 792 792 794 797 799 802 803 803 805 807 809 810 811 813 816 819
753 754 758 760 762 772 785 792 797 805 809 811 813 812 809 809 809 808 813 819 818 816 820 825 829 831 832 833 833 833 833 833 837 841 841 840 840 841 842 843 842 841 840 838 836 834 832 830 828 826 824 823 820 818 817 814 811 809 806 804 803 802 801 799 798 798 797 797 797 796 795 795 796 798 800 803 804 805 807 809 811 813 814 815 818 820
757 759 761 764 768 775 789 801 803 801 806 815 819 815 811 812 811 808 813 821 821 817 819 824 827 830 832 832 833 833 832 833 840 845 844 842 842 842 843 844 843 842 841 838 837 835 833 831 829 828 826 824 822 822 820 817 814 811 810 809 808 806 805 804 804 803 802 802 802 800 799 799 799 800 802 804 806 808 810 811 814 816 816 817 819 821
762 764 765 766 770 773 779 791 797 799 809 820 822 817 813 812 811 808 810 819 823 819 819 822 825 828 830 830 832 832 832 836 844 848 845 844 844 844 845 845 844 843 841 840 838 837 835 833 831 829 827 826 825 824 822 820 817 814 814 814 812 810 809 810 810 809 807 806 805 804 804 804 803 804 805 807 809 811 812 813 815 817 818 820 821 823
768 768 768 769 773 775 781 794 804 809 818 824 822 817 814 812 811 808 807 817 823 821 820 823 826 828 829 830 832 834 834 838 845 848 846 845 846 846 846 846 845 844 843 841 840 838 837 834 832 830 829 829 829 827 825 822 819 818 819 819 816 814 814 816 816 814 812 811 809 809 809 808 808 809 809 810 812 813 814 815 817 819 820 822 823 825
776 774 773 776 781 784 789 802 812 816 822 825 821 818 815 812 811 811 813 820 823 822 823 827 829 831 832 832 834 838 840 841 844 846 846 846 846 847 847 846 846 845 844 843 842 840 838 836 834 833 832 832 832 830 828 825 822 821 822 821 820 820 820 820 820 818 816 815 814 814 814 813 813 813 813 814 814 815 817 818 819 821 821 823 824 826
783 782 780 784 788 787 791 802 812 818 824 825 820 816 813 811 814 819 822 823 824 825 827 830 832 835 836 837 839 842 843 844 845 846 847 847 847 847 848 847 846 846 845 844 842 841 840 838 837 836 835 834 834 832 831 829 826 826 826 825 825 825 825 824 823 821 819 819 819 818 817 817 817 817 817 818 818 818 820 821 822 823 823 824 826 827
795 792 792 799 798 791 794 804 810 816 824 825 820 816 816 817 821 825 826 825 826 828 830 833 836 837 838 840 843 845 846 847 847 848 848 848 848 848 848 848 847 846 845 844 843 842 841 840 839 838 837 836 835 834 833 832 830 830 829 829 829 830 829 828 826 824 822 823 823 821 820 820 820 820 820 820 821 821 822 823 824 825 826 826 827 828
800 794 796 806 807 800 806 815 819 823 829 828 823 822 823 824 823 824 826 828 830 831 832 835 839 840 840 843 845 847 848 849 850 851 850 850 849 849 849 848 848 847 846 845 845 844 843 842 841 840 838 837 836 836 835 834 833 832 832 833 834 834 832 831 830 828 827 828 827 825 824 823 823 823 823 823 824 824 825 826 826 827 828 828 829 830
805 799 797 806 812 811 816 824 828 831 833 830 827 827 826 825 824 824 827 830 832 834 835 838 841 843 844 845 846 848 850 850 851 852 852 851 851 850 850 849 848 848 847 847 846 845 844 843 843 842 840 839 838 837 837 836 835 834 835 836 836 836 835 835 834 833 832 831 830 829 828 826 826 826 826 826 826 827 827 828 828 828 829 830 830 832
804 800 799 808 815 816 820 827 830 832 833 831 830 829 827 827 828 828 829 832 835 837 838 840 842 844 845 845 847 849 850 851 851 852 852 852 852 851 851 850 849 849 849 848 847 847 845 845 844 843 842 841 840 839 839 839 838 837 838 838 838 837 837 837 837 836 835 834 833 832 831 829 829 829 829 829 829 829 829 830 830 830 831 831 832 833
802 800 802 810 815 817 823 831 831 832 833 832 831 831 831 831 832 832 833 835 837 839 840 841 843 844 845 846 847 848 849 850 850 851 852 852 852 852 852 851 851 850 850 849 849 848 847 847 846 844 843 843 842 842 842 841 841 841 841 840 839 839 839 838 838 838 836 835 835 834 833 832 832 832 832 832 832 831 831 832 832 832 832 833 834 835
803 802 806 813 817 820 827 832 831 831 834 834 834 835 835 835 836 836 837 838 840 841 843 843 844 845 845 846 847 847 848 849 849 850 851 851 852 852 852 852 852 851 851 851 850 850 849 848 847 846 846 845 845 844 844 844 843 843 843 842 842 842 841 841 840 840 839 837 837 836 836 836 836 836 835 835 835 834 834 834 834 834 835 835 836 837
799 804 809 815 821 826 830 832 831 833 837 837 837 838 838 838 839 839 840 842 843 844 845 845 846 846 847 847 848 848 848 849 848 849 849 850 851 852 852 852 852 852 852 852 851 851 850 849 849 848 847 847 847 847 846 846 846 845 845 845 844 844 844 844 844 843 842 841 840 840 840 840 840 840 839 839 839 838 838 838 838 838 838 838 839 840
801 809 813 816 822 827 828 828 828 832 837 841 840 840 840 840 841 842 844 845 845 846 846 847 847 848 848 848 849 849 849 849 849 848 848 849 850 851 852 852 853 853 852 852 852 852 851 850 850 849 849 849 849 848 848 848 848 847 847 847 846 846 846 846 846 846 845 845 844 844 843 843 843 843 843 843 843 842 842 841 841 841 841 841 841 842
801 807 810 813 820 824 825 825 827 830 836 840 840 840 841 842 842 844 846 847 847 848 848 848 849 850 850 850 850 850 850 850 850 849 849 850 851 851 852 852 852 852 853 853 853 853 852 852 852 851 850 850 850 850 850 850 850 850 849 848 848 848 848 848 848 848 848 847 847 847 846 846 846 846 846 846 846 845 845 844 844 843 843 844 844 844
Wind_Speed
4 3 4 5 6 7 8 8 9 9 9 10 8 5 6 5 7 7 6 12 9 6 4 7 7 8 7 6 6 1 3 4 7 11 11 10 10 9 9 8 8 8 6 7 13 15 11 16 23 23 22 22 21 20 20 21 21 19 16 14 10 10 17 18 16 15 14 16 17 17 17 17 17 18 17 17 15 14 14 15 16 17 17 17 17 17
5 5 6 8 9 10 9 9 10 10 9 9 7 5 6 4 7 10 3 8 6 6 3 3 2 6 7 7 8 3 1 4 6 9 11 11 10 9 10 10 9 7 6 8 10 13 14 18 25 25 23 25 25 24 23 21 18 16 16 14 14 16 19 20 19 20 22 20 18 18 20 20 21 21 20 19 17 15 15 16 18 18 18 18 18 17
5 5 9 11 10 10 11 10 9 10 10 8 5 4 6 4 6 9 3 6 6 4 2 4 4 5 7 7 8 7 5 6 7 9 12 12 11 10 10 11 10 8 8 8 8 12 15 21 26 25 25 26 26 26 24 21 18 18 19 19 19 19 21 24 24 27 29 26 23 21 22 24 23 23 23 21 20 18 17 18 19 18 18 18 18 16
4 7 11 12 10 9 11 12 10 9 7 6 5 3 5 5 4 5 2 4 4 4 4 6 2 4 5 6 7 8 8 6 6 7 12 14 14 14 15 13 12 11 11 9 9 10 13 20 25 25 26 25 24 26 25 22 21 21 23 22 20 17 20 24 23 27 29 26 24 22 23 25 24 23 23 21 20 19 19 20 20 18 17 17 16 15
7 10 12 11 11 10 9 10 9 7 4 4 5 3 3 6 5 5 4 1 2 1 4 8 2 4 4 6 6 7 7 5 5 3 5 11 14 14 15 14 13 14 13 11 10 9 9 15 22 26 27 25 24 25 26 25 23 25 26 23 21 18 20 23 22 24 26 26 25 23 22 22 21 22 23 22 21 20 21 22 20 19 17 16 16 15
10 10 11 12 12 11 9 8 8 8 4 1 2 3 4 8 9 9 8 5 3 4 2 5 4 5 5 5 7 7 7 7 5 5 6 7 11 12 12 12 12 12 12 11 12 11 11 14 19 23 23 22 21 21 25 25 24 26 26 24 24 22 22 24 24 24 26 28 28 27 26 24 22 23 25 27 26 25 24 22 20 19 17 17 16 15
8 9 8 12 13 13 12 9 8 7 4 1 2 4 6 8 10 10 9 5 2 2 4 3 4 3 5 5 8 7 6 9 8 8 9 7 6 8 10 12 12 11 9 7 8 11 11 11 12 12 16 23 23 22 26 25 24 25 24 24 26 26 27 27 27 26 27 29 31 31 31 29 27 26 26 29 29 28 25 21 20 19 18 18 16 15
7 9 8 8 9 11 10 7 6 7 5 2 4 5 7 9 9 9 8 5 3 4 4 1 3 1 4 5 7 7 6 7 8 7 4 3 5 3 5 8 9 8 6 5 6 6 5 8 13 16 19 25 26 27 28 25 26 26 24 25 28 29 29 29 29 29 29 31 33 33 31 29 29 27 25 26 27 26 24 22 21 19 19 18 17 16
7 10 10 8 6 6 6 5 6 7 4 3 5 8 9 9 9 7 6 5 3 4 5 4 2 1 4 5 7 7 3 3 4 5 6 8 10 9 7 8 8 8 6 5 5 7 11 15 20 21 22 26 26 25 25 27 29 28 26 27 29 30 30 31 31 32 32 33 33 32 30 28 28 25 22 23 24 24 23 22 22 20 18 18 17 16
5 7 10 9 6 5 4 3 5 6 4 5 7 9 8 6 5 2 1 2 2 1 3 3 1 1 4 5 5 3 2 3 3 6 7 8 10 9 6 7 7 7 5 7 10 12 14 17 20 22 26 27 24 21 25 29 29 28 27 28 29 30 31 32 33 35 35 34 32 31 30 29 27 23 19 19 21 23 22 21 21 20 19 19 18 15
8 5 6 6 3 5 5 4 3 4 5 6 7 7 6 6 2 3 3 3 4 2 4 5 4 3 4 5 4 3 3 2 2 5 6 8 12 11 9 8 8 8 8 10 13 14 17 19 18 20 24 24 24 28 32 32 30 28 27 27 28 29 30 30 32 35 35 33 32 31 30 29 26 23 20 19 19 21 21 21 21 20 20 21 19 17
11 7 4 2 2 4 6 6 5 6 8 6 5 4 2 4 2 2 4 4 1 4 5 5 5 4 3 3 4 4 5 5 5 6 7 9 11 11 9 9 8 8 9 11 13 12 14 16 15 15 14 13 15 23 26 25 25 26 27 29 28 28 29 27 27 29 29 30 30 29 28 27 25 24 23 21 19 20 22 23 22 21 21 20 20 20
9 8 3 2 4 3 4 4 3 5 7 5 4 3 2 1 1 0 2 1 3 5 5 5 6 4 3 3 2 5 6 7 7 6 7 8 10 11 10 8 8 8 10 11 10 9 9 9 10 11 10 9 8 10 4 5 6 9 16 22 24 24 24 22 21 20 21 23 24 24 26 26 24 24 24 22 21 21 22 23 22 22 22 21 21 21
5 6 4 4 4 1 5 4 2 3 2 4 4 3 4 2 1 2 3 2 4 5 6 6 5 3 1 1 3 6 6 6 7 7 9 11 12 12 10 10 9 10 10 9 8 8 7 7 9 12 14 15 16 13 2 12 10 5 7 10 12 14 16 15 14 14 15 18 19 19 22 25 24 24 24 22 22 22 22 22 22 23 23 23 22 21
3 4 5 6 4 5 6 5 5 4 3 3 4 4 5 4 3 3 3 4 4 4 3 2 2 2 3 3 4 6 6 6 8 9 12 15 14 12 12 12 12 10 9 7 7 6 5 7 11 11 12 14 17 15 7 4 4 6 9 6 1 1 5 9 10 11 14 17 17 16 19 22 23 23 23 21 21 22 21 22 23 23 23 23 22 21
3 4 7 9 8 7 8 5 5 3 3 2 4 5 4 5 5 3 4 4 3 1 2 0 1 0 3 2 3 6 7 8 11 13 15 14 12 11 11 11 10 9 9 8 6 6 5 5 7 8 9 10 12 10 6 3 3 10 12 8 4 2 1 4 8 12 15 17 17 16 17 19 21 22 21 20 20 21 22 21 22 23 23 23 22 20
2 4 7 12 11 8 9 7 7 5 3 3 3 5 6 6 5 3 4 3 3 3 2 2 3 3 1 2 6 6 7 9 13 14 14 11 11 11 9 8 8 8 7 6 5 5 6 6 5 6 8 9 9 7 3 4 6 9 10 9 12 11 8 9 13 17 18 18 18 19 18 17 19 21 21 21 20 21 23 20 19 23 23 22 22 20
4 5 3 5 7 7 10 10 10 9 7 4 3 5 6 4 3 2 1 2 2 2 4 3 6 1 1 1 6 5 8 10 11 13 12 11 10 11 9 7 7 6 5 5 4 4 5 5 4 6 7 6 7 8 7 10 10 9 8 8 12 15 18 20 22 22 20 19 20 20 19 18 18 20 21 21 21 22 22 18 19 23 23 21 22 21
4 3 4 1 2 4 8 9 7 8 9 6 5 5 4 4 4 3 3 2 2 2 3 2 6 2 2 1 4 6 8 8 10 11 11 10 9 8 7 6 6 6 5 4 4 4 5 6 5 2 1 1 3 8 10 12 12 10 9 9 12 15 18 20 20 18 16 17 18 18 18 18 17 18 20 21 22 22 20 17 20 23 22 22 22 21
3 1 3 4 4 5 5 5 4 5 6 6 5 4 1 3 4 3 3 4 4 3 3 1 4 1 1 2 2 4 5 7 8 9 8 9 9 8 6 6 7 7 7 6 6 5 6 7 8 7 6 5 3 2 5 8 9 6 6 9 12 13 14 15 16 17 16 16 18 18 19 18 17 17 18 21 23 22 17 17 22 24 23 23 22 21
2 2 2 5 4 3 3 4 5 5 5 5 4 3 2 1 2 2 2 2 4 3 3 2 1 3 2 2 2 2 4 6 7 7 7 9 10 9 8 7 6 7 8 9 9 8 8 9 10 10 9 9 8 7 5 6 7 6 6 7 8 9 11 11 14 17 19 19 20 22 22 18 18 19 19 21 23 19 17 20 24 24 24 24 22 21
2 4 4 4 3 3 4 5 9 8 4 5 5 5 4 2 2 2 3 3 2 3 3 5 2 3 1 2 2 3 5 7 9 8 8 8 8 9 8 7 7 8 10 11 11 10 10 12 14 14 14 14 12 12 9 4 3 3 4 6 5 4 6 9 12 14 17 19 21 24 24 19 19 21 20 21 21 18 20 23 25 25 24 24 22 20
1 4 4 3 3 5 6 4 7 9 6 4 4 5 6 5 3 4 3 4 2 3 2 5 2 3 2 2 2 4 6 8 10 10 9 8 8 8 8 9 10 11 12 13 12 11 12 15 17 17 18 18 16 13 9 5 4 5 6 5 4 2 5 11 13 12 14 16 17 20 22 20 20 21 21 22 22 21 23 23 24 24 23 22 21 19
4 2 2 2 3 3 6 7 5 3 2 2 2 2 2 4 4 4 4 3 4 3 3 4 1 3 2 1 3 6 7 9 9 10 10 7 6 8 9 9 10 12 14 13 11 11 15 18 19 19 18 19 19 17 13 13 12 10 11 11 7 1 6 11 12 12 15 15 14 15 17 19 21 22 22 23 23 25 24 21 22 22 20 21 20 17
3 2 2 2 0 2 4 6 6 5 5 2 4 9 8 4 3 3 2 3 3 1 3 6 2 3 1 1 4 7 8 9 10 10 10 7 6 8 9 10 11 13 13 13 12 12 14 16 17 18 18 19 20 20 19 20 18 13 12 10 8 4 3 9 11 15 17 15 16 18 19 22 25 23 22 23 25 26 23 21 21 18 18 21 18 15
1 1 2 4 3 3 2 2 2 3 4 2 6 12 12 8 6 4 3 5 3 3 3 5 3 2 3 3 6 8 8 9 10 11 10 8 7 9 9 10 11 12 12 12 12 11 11 13 15 17 18 19 19 20 21 21 19 16 13 9 6 3 4 9 11 14 17 17 19 23 23 23 25 24 21 23 25 25 23 22 22 19 19 20 16 15
2 2 3 5 4 4 4 4 3 1 3 6 9 11 10 7 6 6 4 3 2 1 4 2 5 7 6 5 7 8 8 8 8 9 10 8 8 9 9 9 11 11 11 11 10 10 10 11 14 16 18 19 20 20 20 21 20 17 14 10 4 2 5 7 8 12 19 21 21 24 25 21 22 23 22 24 26 25 23 23 22 20 19 17 16 17
3 4 5 5 4 5 6 5 3 4 9 9 9 9 9 8 8 7 5 2 4 4 3 1 5 9 6 6 8 7 8 8 7 9 9 8 8 9 9 10 12 12 11 11 10 11 11 10 11 14 16 18 19 20 21 20 21 20 17 14 6 6 10 10 11 15 20 22 21 24 25 20 20 22 23 26 28 25 23 23 22 20 18 18 18 16
4 3 4 4 4 4 5 6 6 7 10 11 10 9 8 8 8 8 4 1 3 5 4 5 6 7 5 6 8 7 8 9 8 9 9 9 10 11 10 11 12 11 10 11 10 10 10 9 10 12 15 17 18 20 21 21 22 22 19 18 12 3 12 14 16 18 21 23 24 25 24 21 22 24 22 24 26 24 22 22 20 19 19 19 18 15
3 2 5 4 4 4 4 5 7 9 12 12 12 10 8 7 8 8 6 5 6 6 6 8 9 7 4 6 8 8 9 8 8 9 10 11 11 11 11 11 10 10 10 10 9 9 9 10 11 12 14 15 18 19 20 20 22 22 22 21 17 5 9 16 19 21 22 24 24 23 22 22 25 25 21 21 21 20 21 21 19 19 19 18 16 15
2 1 5 5 3 2 2 4 7 11 13 13 12 12 10 8 7 7 6 6 7 8 8 9 10 6 4 6 8 9 9 9 9 10 11 11 11 10 10 10 10 10 10 9 9 8 8 10 12 13 14 15 17 20 21 21 21 23 23 23 21 12 7 16 20 20 20 22 23 23 22 23 24 24 22 21 20 19 20 21 21 19 18 17 17 17
2 2 2 3 2 1 3 6 8 10 12 11 10 12 11 7 5 6 6 5 3 7 8 7 5 3 4 6 8 9 10 11 11 11 10 9 10 10 10 10 10 9 9 9 9 9 8 9 12 14 15 16 18 21 22 21 22 24 24 24 23 17 12 13 14 16 18 20 22 22 22 22 21 20 20 20 21 23 23 23 22 21 20 20 20 19
3 4 2 2 2 1 4 8 7 6 6 5 5 7 9 6 7 8 8 9 6 5 5 3 3 4 5 6 8 9 10 11 10 9 8 8 9 10 10 10 10 9 9 9 9 10 9 10 13 16 17 18 19 21 21 21 22 23 24 24 24 23 20 16 14 18 20 21 23 23 24 24 21 19 19 17 20 26 28 26 26 25 24 23 22 22
1 3 4 3 3 2 4 7 6 4 3 1 2 4 6 6 10 10 9 10 10 8 7 6 6 8 7 7 8 9 9 10 9 9 8 8 7 8 9 10 9 8 9 9 9 10 11 12 14 17 19 20 21 21 22 24 23 23 26 27 26 25 23 19 17 19 20 21 23 25 25 25 23 21 20 19 22 28 29 28 28 29 27 26 24 24
2 2 2 2 3 3 4 5 4 1 3 2 1 4 5 4 7 11 11 12 11 10 10 10 9 9 8 8 8 8 9 10 9 9 9 9 8 8 9 9 9 8 8 8 8 10 13 15 16 17 19 21 21 22 24 25 25 26 29 30 29 28 26 24 21 19 19 19 20 23 26 27 26 25 24 23 25 28 29 29 29 28 28 26 25 24
4 3 1 1 2 3 2 2 3 3 4 3 2 5 6 4 4 6 8 11 10 8 9 9 8 8 8 8 8 8 9 9 8 9 10 10 10 9 8 8 8 7 7 8 9 11 14 15 16 17 18 19 22 24 25 24 25 27 30 31 31 30 28 28 27 23 20 18 16 18 24 28 29 28 28 26 26 27 28 27 26 26 26 25 23 22
0 2 2 1 1 3 3 3 3 5 3 2 3 4 4 3 3 2 3 6 7 5 8 8 8 8 7 7 7 7 7 6 7 8 9 10 10 10 10 9 8 8 9 11 12 14 15 16 17 19 20 21 24 26 25 25 26 28 31 31 31 31 30 30 29 27 24 21 17 17 21 25 28 28 28 26 25 26 27 26 23 22 23 22 20 17
5 2 1 1 0 2 5 4 3 4 3 2 2 4 5 4 4 3 1 3 5 4 7 8 7 7 6 5 5 5 3 2 5 5 6 9 9 9 10 11 11 11 12 13 15 16 18 18 19 21 23 24 25 25 25 27 29 30 31 30 30 31 32 31 28 26 25 23 20 20 20 22 25 26 26 26 24 24 24 24 21 18 18 19 17 15
7 4 3 2 1 2 4 4 2 2 2 1 4 6 6 6 7 4 1 2 3 4 5 7 6 6 5 4 3 3 2 1 3 3 4 7 8 8 9 10 11 13 14 15 15 16 17 19 21 23 25 26 25 25 25 27 30 32 30 28 28 31 31 30 28 26 25 23 22 22 21 21 22 23 23 24 23 22 22 22 19 17 16 16 15 15
6 4 3 3 2 3 4 3 2 2 2 2 6 7 6 7 5 2 2 1 2 4 5 6 6 5 4 3 3 2 2 2 4 3 4 6 8 9 9 9 10 13 15 16 15 15 18 21 23 24 24 23 23 25 26 28 31 32 30 28 29 30 28 26 25 26 26 25 25 24 23 22 21 21 21 22 22 22 22 22 21 19 17 17 16 16
3 3 3 4 3 4 4 3 2 2 1 3 7 7 6 5 1 2 2 1 2 5 7 8 8 7 7 6 5 4 5 6 6 5 5 6 7 8 10 10 11 13 14 16 16 17 19 21 22 23 22 21 21 24 27 29 31 31 30 30 31 30 26 23 22 24 27 27 26 26 25 24 22 21 21 21 21 22 21 20 19 18 18 18 17 17
1 2 3 3 1 2 3 3 3 2 1 5 8 7 4 1 2 2 0 1 4 7 8 9 8 8 9 9 7 6 6 8 8 7 6 6 6 7 9 10 11 12 13 15 17 18 19 20 21 23 23 22 21 22 25 28 30 29 28 29 29 28 25 23 23 24 26 27 26 26 26 26 25 23 21 19 20 21 20 19 18 18 18 19 18 18
1 0 2 2 1 1 3 3 2 2 2 8 8 4 3 2 2 1 3 5 7 8 8 8 7 7 8 9 9 8 8 8 8 7 7 6 7 8 9 10 11 11 12 14 16 17 17 18 20 22 23 24 24 23 24 25 27 27 27 26 26 26 26 25 24 24 25 25 25 26 26 26 26 25 24 21 20 19 17 16 16 16 17 19 20 21
3 1 2 1 2 1 3 2 1 2 3 7 6 2 3 2 1 3 4 6 6 6 7 7 7 7 8 10 10 9 8 8 7 7 7 7 7 8 9 10 11 12 13 14 15 16 16 17 19 21 23 25 26 26 26 25 25 26 26 25 24 25 26 26 25 24 24 23 23 24 24 24 24 24 24 23 22 20 19 17 15 14 13 14 16 17
3 3 4 3 3 3 4 3 3 4 3 5 5 4 5 6 5 6 7 7 6 5 6 7 8 8 9 10 9 8 7 7 7 7 6 6 6 8 10 11 12 12 13 13 15 16 17 17 17 19 22 24 26 27 27 27 27 26 25 25 24 24 24 24 24 25 24 24 24 24 23 21 21 21 21 21 21 20 20 19 18 18 18 16 15 15
2 3 4 4 5 6 7 7 6 5 6 7 7 7 7 8 8 7 8 8 7 6 6 7 8 8 7 8 8 7 6 6 6 6 6 5 6 8 10 11 12 12 13 13 14 15 16 16 17 17 19 21 23 25 25 25 26 25 23 23 24 23 22 22 22 22 22 23 24 25 25 23 21 19 18 18 18 18 18 17 17 19 21 21 21 21
2 2 3 4 4 3 5 6 7 7 8 9 9 9 9 10 8 7 8 8 7 7 7 8 8 8 7 7 8 7 7 6 6 6 5 4 5 7 9 10 11 12 12 12 12 12 14 15 17 18 18 19 19 21 21 21 22 22 21 20 21 21 20 20 20 20 20 20 20 21 24 26 25 22 20 18 17 16 16 15 14 16 18 19 20 22
1 1 4 6 5 4 6 8 10 11 10 9 8 8 8 9 9 9 8 8 8 9 9 8 8 7 6 6 7 7 6 6 7 7 5 4 6 7 7 8 9 10 11 11 10 10 10 11 12 14 15 17 17 18 19 19 18 18 18 18 18 18 19 18 17 17 18 18 18 18 19 21 23 23 23 21 19 18 17 15 13 14 16 17 17 17
3 2 4 7 7 7 9 10 10 11 11 10 9 8 7 7 9 10 9 9 10 9 10 11 11 10 8 7 6 5 4 4 6 8 7 6 7 8 8 8 8 9 9 10 10 10 9 9 9 9 10 11 13 15 16 16 15 14 14 15 15 16 17 16 15 15 15 16 16 15 14 15 17 20 21 22 21 20 19 17 15 14 14 14 13 13
6 6 5 6 6 5 6 7 7 7 8 7 8 9 8 8 9 10 9 9 9 9 9 9 11 13 14 13 11 8 5 5 6 6 7 8 9 10 10 9 8 7 8 8 8 9 10 10 10 9 8 8 8 10 12 13 13 12 12 11 10 12 13 13 12 13 13 14 14 13 12 11 12 14 17 19 20 20 19 18 16 15 14 13 12 11
6 6 5 5 6 7 8 8 7 7 8 8 9 9 8 7 9 9 9 8 8 8 9 8 8 9 10 13 14 13 9 9 12 12 9 8 8 8 9 9 9 8 8 8 8 8 8 9 11 11 11 11 11 12 12 11 10 11 13 13 11 9 10 11 12 12 11 10 10 12 12 11 10 10 12 15 17 18 19 19 18 17 16 15 13 11
Wind_Direction
164 184 223 219 227 232 232 230 238 251 251 261 275 268 269 277 289 286 166 163 157 128 174 184 203 255 275 282 292 348 122 171 172 155 160 163 155 160 161 160 162 166 183 171 164 170 161 145 149 154 157 160 163 171 181 181 182 181 167 168 171 138 137 140 140 151 137 124 139 147 155 169 177 183 180 171 174 177 180 187 188 188 189 186 182 183
153 179 227 223 223 234 242 237 239 257 264 270 279 291 301 289 293 302 181 161 119 101 198 169 73 300 298 295 290 311 91 224 205 159 160 164 159 164 163 167 169 162 168 161 156 164 157 145 150 155 157 161 165 169 174 171 166 156 152 156 149 139 142 145 144 155 167 169 169 170 173 177 178 183 183 175 172 173 175 181 186 189 189 185 181 181
175 210 224 221 223 225 239 246 237 243 252 265 277 290 299 294 304 301 199 146 98 107 195 95 57 294 285 297 299 298 273 236 210 171 167 167 161 169 178 179 177 167 169 167 153 161 160 149 151 157 162 167 167 165 165 160 148 146 162 167 156 151 149 151 157 165 172 178 179 179 182 181 180 184 184 178 174 174 177 183 187 190 189 185 182 181
187 222 219 219 225 217 229 243 237 238 243 244 244 248 270 270 294 295 207 139 145 168 158 127 133 278 288 304 305 289 274 258 237 188 165 168 170 176 185 186 178 175 181 178 164 167 160 151 156 164 169 169 160 156 152 144 144 163 179 172 159 159 152 152 167 172 172 175 175 179 185 183 180 183 184 178 174 176 181 184 185 185 186 185 185 185
224 219 208 215 226 223 226 237 234 231 238 241 232 210 255 273 274 273 291 289 213 226 139 129 82 316 282 278 285 282 279 273 261 237 172 173 180 185 187 188 183 179 184 178 163 164 161 159 165 168 170 165 153 148 141 141 160 182 187 171 154 156 158 163 177 180 177 175 173 179 184 183 180 181 182 177 172 174 184 189 183 180 185 186 185 187
237 223 196 202 218 230 230 235 233 217 211 297 273 224 252 284 290 291 312 349 23 332 276 120 72 304 271 252 255 265 278 282 274 253 241 200 187 191 189 191 189 181 186 178 160 161 168 172 172 169 162 145 132 127 131 150 178 191 186 168 153 157 168 180 186 183 181 179 177 179 182 186 186 183 181 179 175 175 184 190 182 180 188 189 183 184
237 233 209 200 205 217 224 232 226 192 156 57 264 227 231 257 276 286 301 329 53 265 268 132 128 265 295 271 249 246 248 261 264 243 239 238 217 200 184 185 186 180 184 174 158 165 172 172 164 147 124 111 111 118 132 159 191 196 182 163 158 166 175 186 191 185 183 182 182 185 188 192 193 190 186 180 178 178 181 184 181 182 187 187 181 179
216 227 240 227 206 209 215 226 203 150 133 191 238 244 240 239 251 263 268 266 235 246 294 35 118 264 297 271 261 260 250 259 275 270 253 316 352 37 124 153 163 165 167 159 154 144 102 73 72 80 93 107 122 132 142 167 192 194 181 164 166 173 178 187 191 189 189 187 187 188 190 192 195 197 191 180 178 177 178 179 180 183 184 183 179 176
210 209 227 242 240 217 202 193 158 135 152 202 217 238 247 234 230 246 257 260 256 256 305 344 33 324 271 272 280 270 280 28 21 15 42 52 38 45 89 118 135 149 150 129 106 82 67 75 88 97 107 117 127 139 159 179 186 186 182 173 173 178 183 189 191 191 191 189 188 186 186 189 194 200 195 181 177 176 176 178 176 180 185 182 176 177
237 202 204 219 232 206 199 209 152 143 185 206 215 236 263 258 218 139 86 305 337 272 271 298 345 283 279 295 306 294 1 22 51 50 48 57 52 50 75 102 116 120 104 76 69 65 70 88 105 112 120 129 137 155 180 188 182 179 181 179 180 186 190 192 191 190 190 190 189 185 184 186 189 196 195 182 176 175 175 175 172 173 179 177 173 178
257 247 213 212 207 167 182 223 196 196 223 214 217 233 266 279 270 76 64 54 29 323 253 235 203 210 271 310 342 38 50 359 43 55 39 44 51 54 60 70 79 78 70 66 65 65 71 83 98 108 122 139 153 169 184 191 185 179 183 187 189 194 197 196 193 193 193 193 193 188 186 187 186 188 189 184 178 175 172 170 167 165 167 171 170 171
251 254 244 200 228 193 180 194 192 217 235 219 204 202 240 292 329 10 3 43 32 270 253 252 245 215 221 290 341 24 48 50 58 59 48 47 57 65 59 49 59 67 67 68 68 66 71 78 84 94 113 131 151 172 184 193 193 184 185 192 195 200 203 201 197 196 195 194 193 191 189 189 187 184 187 189 182 176 172 166 162 162 163 167 167 166
246 236 237 189 237 239 164 175 194 230 233 205 181 140 127 309 6 49 323 13 227 248 232 237 256 242 204 232 321 19 40 51 59 68 66 59 65 77 75 54 44 44 50 64 75 79 80 84 93 111 139 156 176 200 227 313 272 212 198 198 195 200 208 206 201 199 196 194 194 193 192 191 189 185 187 189 183 177 172 165 161 162 164 164 163 162
249 236 242 223 223 151 123 144 159 241 219 146 156 132 129 153 105 184 226 217 223 241 230 217 228 238 195 243 333 15 37 50 55 62 62 57 57 64 68 63 54 46 44 51 67 84 98 114 127 141 157 170 186 200 302 354 337 293 249 231 204 202 211 212 211 207 201 200 200 197 194 193 191 188 188 187 184 178 169 165 163 163 162 159 157 155
215 234 232 230 211 148 152 157 157 204 212 159 175 157 151 166 161 190 198 196 219 243 257 219 183 179 175 227 309 1 21 37 49 54 56 53 50 50 45 43 46 46 46 47 52 63 89 122 142 156 158 166 183 187 159 31 324 257 252 252 226 269 223 215 219 213 209 211 210 206 199 194 193 192 190 188 186 179 171 167 163 162 161 158 157 153
219 236 204 212 218 172 165 170 167 210 261 220 185 164 183 190 170 202 223 199 176 91 346 40 87 246 180 210 337 14 23 32 45 48 52 49 42 46 40 34 39 38 35 37 38 35 41 85 128 144 144 160 189 195 162 120 227 235 240 221 163 55 345 227 228 221 219 218 216 213 206 200 199 196 193 190 186 180 174 169 166 164 161 160 161 156
216 257 202 197 213 187 157 168 177 189 230 244 200 188 210 201 166 183 259 256 119 111 268 165 100 325 336 17 345 9 34 40 47 47 50 49 42 47 45 33 37 39 36 37 30 27 30 37 79 133 152 169 192 205 223 274 246 231 241 217 186 190 203 216 226 225 223 218 215 215 210 204 201 197 195 192 186 180 175 172 169 164 159 157 158 155
199 258 258 183 210 194 161 172 186 187 197 229 245 212 198 198 198 173 232 308 83 141 260 154 133 274 12 357 315 358 41 41 48 51 49 47 44 47 45 36 28 21 31 47 37 37 52 52 84 159 183 201 214 212 227 260 250 221 227 217 189 194 205 212 217 216 215 211 209 210 209 208 204 198 197 194 188 181 176 171 164 159 157 153 151 150
198 246 301 324 254 221 168 169 197 208 201 204 237 237 180 165 216 220 195 223 125 158 266 122 114 78 81 204 306 8 37 36 47 55 50 46 50 50 42 39 30 10 13 37 34 36 54 55 53 79 129 322 231 216 228 255 250 221 219 219 202 200 209 216 215 209 206 206 204 203 203 206 207 202 199 195 189 183 176 170 163 158 157 155 151 150
194 153 289 247 241 236 187 164 199 228 215 218 257 278 236 154 171 188 199 189 147 164 227 113 84 39 260 260 322 23 41 40 49 61 60 53 55 57 50 49 43 27 22 27 30 29 34 39 39 32 16 16 45 170 237 280 288 266 239 230 226 226 226 224 213 204 203 204 201 198 198 204 209 208 202 194 188 184 177 169 163 159 157 156 153 151
194 123 244 266 296 286 222 173 189 205 194 206 244 269 271 237 163 153 260 205 148 154 193 139 83 268 262 341 1 50 59 54 54 62 66 59 55 54 51 53 52 44 37 32 32 27 22 26 27 25 25 27 31 34 7 330 328 316 268 249 258 256 240 227 213 205 204 204 202 197 193 196 206 207 198 188 185 183 176 166 160 157 154 153 151 149
177 151 189 257 312 298 248 193 196 213 194 167 187 210 215 207 151 135 293 272 146 123 161 146 171 254 240 58 36 56 70 72 68 64 61 55 54 53 45 42 48 52 46 36 32 25 21 24 19 16 27 33 32 34 32 9 335 328 291 270 276 272 231 216 213 210 205 202 202 195 187 185 195 200 192 184 185 180 169 161 157 155 151 149 149 149
58 129 147 222 238 246 262 246 213 223 231 199 187 201 198 195 182 165 213 242 142 89 84 107 124 252 227 135 103 77 75 74 69 68 65 49 43 49 44 38 42 47 45 39 30 19 13 18 18 16 19 19 18 29 44 37 20 33 23 339 304 284 216 214 218 217 206 200 200 195 186 179 184 192 187 183 182 171 159 154 153 153 148 146 148 150
355 74 115 221 251 278 303 305 286 239 240 264 311 332 224 207 196 172 188 186 148 146 125 99 94 258 245 138 95 83 77 73 67 68 69 56 35 38 40 41 44 46 44 38 29 17 10 10 13 15 14 10 8 9 13 10 8 22 26 7 358 40 201 215 221 214 196 191 198 200 188 176 178 187 186 179 171 160 154 152 152 152 150 147 148 151
340 20 80 111 76 357 340 317 324 9 24 26 24 17 14 23 60 59 19 63 103 177 137 123 169 247 241 70 85 85 78 73 70 68 67 62 48 39 37 40 43 46 44 36 28 19 11 7 7 8 7 5 5 3 4 5 6 15 20 10 15 42 189 205 211 209 191 175 181 190 186 180 180 183 181 171 162 159 160 158 153 148 149 151 150 152
129 65 87 110 136 162 170 242 275 320 325 355 40 30 22 24 51 74 57 59 43 338 41 103 148 149 112 87 81 78 71 68 67 66 59 51 50 49 43 39 41 45 43 37 32 21 12 8 5 4 3 1 0 360 1 2 3 9 14 14 26 32 228 210 202 199 185 172 177 184 185 181 177 176 172 163 158 160 160 156 151 148 150 152 150 147
94 36 56 101 126 153 154 171 193 238 356 28 37 32 24 22 54 88 88 88 126 28 16 51 142 135 129 110 86 71 67 63 61 65 61 48 49 52 48 42 44 43 38 36 35 25 17 12 5 1 0 359 357 356 357 358 357 358 359 359 16 146 202 212 196 184 181 179 178 180 180 175 171 171 167 159 156 157 154 150 151 151 154 154 147 143
76 25 22 65 97 123 127 129 123 62 48 49 43 33 24 26 51 73 82 134 147 107 23 315 135 128 127 104 85 75 74 67 55 60 60 52 52 53 47 45 45 43 36 33 32 26 20 15 6 3 0 358 356 353 353 356 357 354 354 353 355 158 166 179 183 182 183 180 174 172 170 167 164 164 161 156 152 152 153 151 152 153 153 152 147 148
83 28 5 38 66 76 94 109 107 82 67 60 50 36 22 27 53 67 64 65 124 126 164 189 140 115 110 94 79 75 78 71 59 57 53 49 53 50 46 44 42 40 37 33 30 27 23 17 9 4 1 359 358 355 354 355 356 355 355 356 357 160 173 177 176 175 171 168 171 170 161 157 157 155 153 151 147 147 148 147 148 147 144 146 149 151
82 10 346 8 52 48 51 79 95 94 79 58 42 31 21 26 47 58 47 25 44 86 132 136 110 85 75 85 79 75 76 73 67 61 51 48 51 51 48 46 41 37 36 32 25 19 21 22 14 5 2 1 360 359 357 356 357 358 360 4 9 34 164 168 166 167 160 154 164 167 151 143 148 149 150 151 146 146 147 145 147 145 142 147 148 144
74 334 327 351 37 56 52 60 77 91 86 64 39 26 21 21 27 37 32 15 36 70 90 100 97 85 69 75 70 63 63 62 59 57 54 51 50 53 53 49 44 38 34 29 21 11 13 22 18 8 3 0 2 7 7 3 3 5 9 14 18 29 134 155 152 154 150 142 149 155 145 139 142 145 150 154 154 154 151 149 149 145 140 138 134 133
104 147 330 5 29 12 83 99 105 100 87 68 40 19 10 14 36 45 36 10 38 104 102 87 85 105 102 82 69 59 56 56 53 50 55 55 52 55 56 51 47 40 33 28 21 10 2 13 22 16 7 4 8 13 12 11 13 15 17 20 22 36 83 120 122 124 129 132 138 144 145 146 146 143 145 148 151 154 152 147 142 135 126 120 118 120
141 144 160 142 126 57 100 114 118 101 78 57 31 5 354 14 60 59 39 24 33 88 103 85 86 105 100 85 74 67 61 58 54 46 48 56 57 58 57 53 47 38 31 26 21 12 2 10 24 23 17 16 18 18 18 21 23 23 25 29 32 46 69 84 89 97 109 123 133 135 140 145 143 136 133 131 133 139 142 137 130 126 121 115 113 111
170 148 166 154 130 155 140 116 98 82 85 67 314 334 344 26 68 68 46 35 46 67 75 74 77 78 78 79 80 81 74 67 63 54 48 53 58 59 58 54 46 37 31 24 19 16 11 17 26 27 26 26 25 26 29 32 32 33 37 42 42 46 57 68 80 91 99 113 124 128 133 137 132 125 125 124 124 129 131 127 122 120 119 116 113 110
170 142 158 148 127 148 143 108 85 105 140 150 331 350 348 15 71 77 61 46 55 77 80 75 79 82 87 93 92 90 87 80 75 68 58 54 53 54 56 51 42 36 32 24 19 16 16 22 27 27 27 29 29 32 35 35 35 39 44 47 46 44 48 54 64 78 91 101 113 124 130 132 127 122 122 121 119 119 120 118 115 114 115 114 112 109
171 175 167 150 122 124 124 95 108 136 131 112 43 11 360 356 31 59 54 38 42 79 93 91 99 105 106 109 108 106 103 93 78 66 57 55 54 50 48 45 36 33 30 23 20 18 19 26 32 34 34 35 36 38 38 37 39 43 46 47 46 43 45 48 49 56 71 84 94 110 122 126 125 122 120 115 109 107 109 109 108 109 110 108 105 105
346 179 144 109 74 105 101 70 99 128 118 65 30 3 2 11 359 10 65 34 23 68 103 108 114 117 119 124 130 139 134 104 71 55 47 49 54 53 50 45 36 33 34 31 30 31 33 38 41 43 44 43 42 41 40 42 45 46 45 45 44 42 43 44 43 45 55 67 77 89 105 116 120 122 123 119 110 105 107 110 109 110 113 111 106 104
7 357 69 143 234 100 112 110 123 158 155 90 10 334 350 359 327 305 114 58 7 48 104 117 123 128 137 148 163 185 194 62 51 48 44 47 52 53 52 47 40 37 37 36 37 40 42 45 47 47 48 48 45 43 43 45 49 49 45 41 42 44 42 39 39 43 49 58 72 84 94 103 110 116 121 121 116 112 114 118 117 116 119 119 114 110
18 359 13 93 109 100 123 128 129 164 145 62 331 320 332 333 314 307 94 79 359 24 93 115 126 134 146 157 169 204 234 66 72 59 47 52 51 50 52 48 42 41 41 42 44 45 47 51 52 51 50 47 45 45 47 48 50 49 44 38 41 45 43 38 37 43 50 56 68 81 90 98 105 110 113 115 117 116 117 120 122 121 122 122 120 120
4 354 29 68 78 84 106 106 76 97 103 11 322 313 317 315 307 286 147 113 21 35 72 88 90 89 89 91 79 48 31 104 117 95 65 67 61 55 55 51 45 45 46 47 49 52 54 56 55 52 49 46 46 49 51 51 51 49 43 40 40 40 39 38 39 45 53 60 66 73 79 86 96 104 109 113 117 119 120 122 125 126 126 126 128 128
356 359 52 77 74 71 92 106 89 92 83 338 316 309 311 311 299 141 170 252 36 65 74 74 72 67 62 67 76 67 62 85 104 101 83 75 68 60 57 56 55 56 54 53 53 54 56 56 56 55 52 48 49 53 54 54 54 50 44 42 41 38 37 42 45 48 53 58 62 66 68 71 78 87 98 106 112 115 118 120 121 124 126 127 129 126
358 1 37 51 53 51 78 101 100 105 44 337 319 308 321 1 132 119 66 47 75 80 81 78 79 83 78 74 77 81 81 83 89 90 79 71 68 63 58 56 57 59 58 56 54 54 56 56 56 55 53 52 52 54 57 59 58 54 49 45 41 41 45 50 53 56 56 54 55 61 65 66 70 76 85 95 102 105 107 109 111 113 116 119 121 121
347 49 70 38 340 44 75 83 100 123 9 341 330 323 8 48 135 107 61 80 86 87 89 85 84 94 96 90 84 82 81 77 72 70 66 61 60 58 58 58 56 55 57 54 50 52 57 58 56 54 53 53 53 54 57 59 59 56 52 48 45 47 51 54 57 61 60 54 52 57 63 67 70 72 77 82 89 93 96 102 107 111 114 116 119 121
340 316 127 110 303 17 85 89 80 92 17 351 354 55 45 18 157 136 98 92 86 87 96 94 91 95 99 100 97 90 84 79 72 67 61 52 47 47 51 57 56 54 55 54 53 57 63 63 60 59 58 55 54 54 55 56 58 56 51 49 50 53 54 55 57 61 60 57 55 57 63 68 70 71 74 78 83 86 88 93 99 104 111 120 125 127
27 65 93 79 51 62 89 105 92 85 63 21 27 57 53 44 65 92 98 94 85 85 95 97 99 99 100 102 101 95 93 91 86 81 73 60 49 44 44 48 51 52 52 53 56 60 64 67 66 64 62 58 55 55 54 53 54 52 48 48 51 54 55 54 55 58 59 58 57 58 60 64 67 67 68 73 78 79 80 85 90 90 92 100 109 119
99 99 92 85 95 90 82 91 99 89 75 62 53 55 59 58 62 78 89 88 85 88 95 101 107 111 114 115 109 103 107 109 104 100 95 83 67 56 52 50 48 47 48 49 54 57 60 64 65 63 61 58 56 57 57 56 55 52 49 49 49 49 50 51 52 55 57 56 57 57 58 60 61 62 61 63 65 66 66 72 78 81 84 88 91 96
16 34 73 94 125 113 77 84 98 91 78 73 69 67 68 67 67 74 85 91 96 99 103 111 117 120 119 115 114 117 124 123 117 113 110 105 91 75 66 60 52 49 48 47 48 53 57 61 62 60 59 58 56 57 57 56 56 54 51 51 50 47 46 46 45 47 51 54 53 53 55 58 59 59 59 57 57 60 62 63 69 75 78 79 82 88
306 10 77 79 79 82 86 93 94 88 83 80 77 75 74 75 76 75 78 86 91 91 91 95 103 114 119 117 121 128 134 138 135 127 121 117 112 101 87 77 68 62 59 53 47 47 53 57 57 57 60 62 60 60 61 59 58 56 53 53 53 50 47 45 43 41 44 48 50 49 51 55 56 57 58 58 57 59 60 58 62 70 73 71 73 80
132 104 96 98 99 97 101 107 104 93 87 84 84 86 85 85 87 85 84 86 85 83 80 74 71 71 79 92 107 116 123 133 132 131 135 131 122 117 106 95 85 76 69 63 56 50 46 44 44 49 58 66 69 69 68 65 62 61 60 60 61 60 58 55 53 51 48 49 54 56 57 58 58 59 60 61 62 63 63 62 63 69 73 73 72 75
103 109 115 116 114 108 109 121 123 108 98 96 99 99 96 94 93 88 83 81 80 81 81 76 69 63 61 63 63 62 63 54 56 85 124 136 138 141 137 123 112 100 89 80 69 63 56 47 44 45 45 48 62 73 76 74 70 66 65 67 72 72 69 67 67 63 57 55 58 65 72 75 74 71 71 71 70 69 70 72 71 73 76 78 79 82
95 116 124 111 105 106 107 110 110 104 106 115 119 112 104 99 94 89 88 87 84 83 82 79 77 69 61 60 63 63 62 49 41 46 61 75 94 122 141 146 145 137 123 107 89 79 73 62 53 51 48 44 48 58 64 69 75 76 69 68 80 87 77 72 70 61 53 56 64 69 77 86 90 89 85 81 76 72 73 77 77 77 78 78 82 88